Regional Weather Roundup
Issued by NWS Sterling, VA

Home | Current Version | Previous Version | Text Only | Print | Product List | Glossary Off
Versions: 1 2 3 4 5 6 7 8 9 10 11 12 13 14 15 16 17 18 19 20 21 22 23 24 25 26 27

000
ASUS41 KLWX 172111
RWRLWX

REGIONAL WEATHER ROUNDUP
NATIONAL WEATHER SERVICE BALTIMORE MD/WASHINGTON DC
400 PM EST FRI NOV 17 2017

Note: "FAIR" indicates few or no clouds below 12,000 feet
with no significant weather and/or obstructions to visibility.
 TC=TEMPERATURE CELSIUS

 * =Non NWS site. Station does not report precipitation (e.g. rain,
    snow, etc.), thunder, or fog.

DCZ001-MDZ009-015-VAZ040>042-051-053>054-172200-
WASHINGTON METRO

CITY           SKY/WX    TMP DP  RH WIND       PRES   REMARKS
WASHINGTON NAT MOCLDY    51  26  37 NW10      30.16S
DULLES         PTCLDY    50  29  44 W6        30.15F
ANDREWS AFB    CLOUDY    50  24  36 NW9       30.14R
FT BELVOIR     PTCLDY    53  25  34 NW8       30.15F
QUANTICO       CLOUDY    53  27  36 NW6       30.17S
COLLEGE PARK*  PTCLDY    51  25  37 W6        30.15S
LEESBURG*      CLOUDY    52  32  46 NW5       30.16R
MANASSAS*      PTCLDY    53  28  38 NW9       30.16F
GAITHERSBURG*  CLOUDY    49  26  41 NW8       30.15S

$$

MDZ006>007-011-014-172200-
BALTIMORE METRO

CITY           SKY/WX    TMP DP  RH WIND       PRES   REMARKS
BWI AIRPORT    CLOUDY    51  26  37 NW5       30.14S
MD SCIENCE CTR   N/A     52  25  35 MISG      30.14S
MARTIN STATE   PTCLDY    50  28  43 NW8       30.16R
ANNAPOLIS      CLEAR     53  30  41 NW5       30.14S
FORT MEADE*    PTCLDY    50  27  40 NW5       30.16S

$$

MDZ012-015-019>023-172200-
MARYLAND EASTERN SHORE

CITY           SKY/WX    TMP DP  RH WIND       PRES   REMARKS
OCEAN CITY     CLEAR     49  31  49 NW9       30.13R
SALISBURY      CLEAR     48  30  49 NW8       30.14R
CAMBRIDGE*     CLEAR     48  28  46 CALM      30.14S
EASTON*        PTCLDY    48  28  46 N5        30.18S

$$

MDZ017>025-172200-
SOUTHERN MARYLAND

CITY           SKY/WX    TMP DP  RH WIND       PRES   REMARKS
PATUXENT RIVER CLOUDY    51  30  44 NW9       30.15R
ST INIGOES     PTCLDY    51  32  48 W10G17    30.15R
LEONARDTOWN*   CLOUDY    50  28  43 W7        30.17R

$$

MDZ003>005-172200-
NORTH CENTRAL MARYLAND

CITY           SKY/WX    TMP DP  RH WIND       PRES   REMARKS
FREDERICK*     CLEAR     52  21  30 W7        30.18R
HAGERSTOWN APT CLEAR     50  25  37 NW7       30.13F
WESTMINSTER*   CLOUDY    50  27  40 W6        30.12F

$$

MDZ501>502-172200-
WESTERN MARYLAND

CITY           SKY/WX    TMP DP  RH WIND       PRES   REMARKS
OAKLAND*       PTCLDY    37  27  65 S3        30.07F
CUMBERLAND*    CLEAR     50  27  40 CALM      30.18S

$$

VAZ025>031-172200-
SHENANDOAH VALLEY

CITY           SKY/WX    TMP DP  RH WIND       PRES   REMARKS
WINCHESTER*    CLEAR     48  27  43 NW7       30.14S
FRONT ROYAL*   CLOUDY    52  28  40 CALM      30.13S
LURAY*         CLEAR     52  28  40 SE3       30.14S
NEW MARKET*    CLEAR     51  24  35 CALM      30.14S
STAUNTON*      CLEAR     50  28  41 SE3       30.14F
WAYNESBORO*    CLEAR     52  22  31 CALM      30.12F

$$

WVZ021-048>050-054>055-172200-
EASTERN WEST VIRGINIA PANHANDLE

CITY           SKY/WX    TMP DP  RH WIND       PRES   REMARKS
MARTINSBURG    CLEAR     51  25  36 NW3       30.13F
PETERSBURG*    CLEAR     52  26  35 CALM      30.13S

$$

VAZ036>039-050-172200-
CENTRAL FOOTHILLS

CITY           SKY/WX    TMP DP  RH WIND       PRES   REMARKS
CHARLOTTESVILL CLEAR     56  22  26 S5        30.14S
CULPEPER*      PTCLDY    54  27  35 SW5       30.16F
ORANGE*        PTCLDY    52  27  37 CALM      30.15F
GORDONSVILLE*  PTCLDY    55  26  32 CALM      30.14F
WARRENTON*     NOT AVBL

$$

VAZ055>057-172200-
NORTH AND CENTRAL PIEDMONT

CITY           SKY/WX    TMP DP  RH WIND       PRES   REMARKS
FREDERICKSBRG* PTCLDY    54  30  41 W5        30.15F
STAFFORD*      PTCLDY    51  25  36 CALM      30.19F

$$

NCZ024-NYZ072-PAZ021-071-VAZ022-071-172200-
OTHER REGIONAL OBSERVATIONS

CITY           SKY/WX    TMP DP  RH WIND       PRES   REMARKS
NEW YORK CITY  CLEAR     47  15  27 NW8G20    30.09S
PHILADELPHIA   PTCLDY    50  20  30 NW13      30.12R
PITTSBURGH     MOCLDY    43  28  55 S6        30.11F
ROANOKE        MOSUNNY   55  25  31 CALM      30.16S
RICHMOND       MOCLDY    54  28  36 N8        30.17R
RALEIGH        CLOUDY    56  28  34 CALM      30.16S

$$

ANZ530>537-172200-
MARINE OBSERVATIONS

STATION/POSITION TIME  TEMP    WIND        PRES
                       AIR SEA DIR/SP/G
                 (UTC) (F)     (DEG/KT/KT) (MB)
THOMAS PT LIGHT  2100   51 54  320/  7/  8   N/A

$$





USA.gov is the U.S. government's official web portal to all federal, state and local government web resources and services.